sat.trackr.live / text

‹ back to catalog

MACSAT (FINCH 1)

NORAD 58024 · 2023-155J

PAYLOAD ACTIVE UNKNOWN

§ Identity

Operator
Country
LUXE
Launch date
2023-10-09
Launch site
FRGUI
Launch vehicle
Mass (kg)
RCS (m²)

External: N2YO · Heavens-Above · Gunter

§ Orbital elements

Epoch: 2026-09-21T17:36:32.257152Z

Period
94.66 min
Inclination
97.5729°
Eccentricity
0.0003890
Mean motion
15.21227599 rev/d
Perigee alt
499.5 km
Apogee alt
504.8 km
Semi-major
6,880.3 km
B*
1.1791e-4
RAAN
347.2535°
Arg perigee
91.7866°
Mean anomaly
268.3815°
Rev number
16,300

§ Raw data

MACSAT (FINCH 1)1 58024U 23155J   26264.73370668  .00002560  00000+0  11791-3 0  99992 58024  97.5729 347.2535 0003890  91.7866 268.3815 15.21227599163002

JSON: /api/v1/satellites/58024 · /tle

For live sub-satellite position, see the globe view (requires WebGL).

§ Visibility from observer

Set your observer location to see the next 7 days of passes ≥ 10°. The values pass through the URL so the page stays shareable.

No JS? Fill the form by hand. The geolocation button needs JavaScript.